owner,sensor,date,latitude,longitude,vertical_datum,wind_speed,wind_to_direction,wind_speed_of_gust,qcFlag 
TABS,ioos:station:wmo:42046:1,2008-08-01T00:00:00Z,27.8903,-94.0367,4.0,4.290571058,179.0653994,5.67,'11111222,11111222,11111222' 
TABS,ioos:station:wmo:42046:1,2008-08-01T00:30:00Z,27.8903,-94.0367,4.0,4.210760026,178.9115881,5.43,'11111222,11111222,11111222' 
TABS,ioos:station:wmo:42046:1,2008-08-01T01:00:00Z,27.8903,-94.0367,4.0,4.828685121,172.7427525,6.34,'11111222,11111222,11111222' 
TABS,ioos:station:wmo:42046:1,2008-08-01T01:30:00Z,27.8903,-94.0367,4.0,4.807296538,171.1453312,6.19,'11111222,11111222,11111222' 
TABS,ioos:station:wmo:42046:1,2008-08-01T02:00:00Z,27.8903,-94.0367,4.0,5.20124985,169.2520085,6.64,'11111222,11111222,11111222' 
TABS,ioos:station:wmo:42046:1,2008-08-01T02:30:00Z,27.8903,-94.0367,4.0,4.994847345,164.7954309,6.38,'11111222,11111222,11111222' 
TABS,ioos:station:wmo:42046:1,2008-08-01T03:00:00Z,27.8903,-94.0367,4.0,5.663258779,166.2093758,7.18,'11111222,11111222,11111222' 
TABS,ioos:station:wmo:42046:1,2008-08-01T03:30:00Z,27.8903,-94.0367,4.0,6.020406963,179.334012,7.4,'11111222,11111222,11111222' 
TABS,ioos:station:wmo:42046:1,2008-08-01T04:00:00Z,27.8903,-94.0367,4.0,5.472339536,178.3247644,7.03,'11111222,11111222,11111222' 
TABS,ioos:station:wmo:42046:1,2008-08-01T04:30:00Z,27.8903,-94.0367,4.0,5.844142367,182.1575879,7.26,'11111222,11111222,11111222' 
TABS,ioos:station:wmo:42046:1,2008-08-01T05:00:00Z,27.8903,-94.0367,4.0,5.920684082,180.871192,7.61,'11111222,11111222,11111222' 
TABS,ioos:station:wmo:42046:1,2008-08-01T05:30:00Z,27.8903,-94.0367,4.0,5.818539336,187.4061288,7.61,'11111222,11111222,11111222' 
TABS,ioos:station:wmo:42046:1,2008-08-01T06:00:00Z,27.8903,-94.0367,4.0,5.938560432,195.2299077,7.65,'11111222,11111222,11111222' 
TABS,ioos:station:wmo:42046:1,2008-08-01T06:30:00Z,27.8903,-94.0367,4.0,6.441746658,194.0148489,7.67,'11111222,11111222,11111222' 
TABS,ioos:station:wmo:42046:1,2008-08-01T07:00:00Z,27.8903,-94.0367,4.0,6.689671143,193.309358,8.38,'11111222,11111222,11111222' 
TABS,ioos:station:wmo:42046:1,2008-08-01T07:30:00Z,27.8903,-94.0367,4.0,5.986526539,203.7391371,8.15,'11111222,11111222,11111222' 
TABS,ioos:station:wmo:42046:1,2008-08-01T08:00:00Z,27.8903,-94.0367,4.0,6.588998406,197.0325745,8.26,'11111222,11111222,11111222' 
TABS,ioos:station:wmo:42046:1,2008-08-01T08:30:00Z,27.8903,-94.0367,4.0,6.827188294,203.9370802,8.51,'11111222,11111222,11111222' 
TABS,ioos:station:wmo:42046:1,2008-08-01T09:00:00Z,27.8903,-94.0367,4.0,6.337925528,207.535534,8.31,'11111222,11111222,11111222' 
TABS,ioos:station:wmo:42046:1,2008-08-01T09:30:00Z,27.8903,-94.0367,4.0,6.137141028,207.7760788,7.62,'11111222,11111222,11111222' 
TABS,ioos:station:wmo:42046:1,2008-08-01T10:00:00Z,27.8903,-94.0367,4.0,5.867580421,208.836605,8.04,'11111222,11111222,11111222' 
TABS,ioos:station:wmo:42046:1,2008-08-01T10:30:00Z,27.8903,-94.0367,4.0,6.003040896,212.5518496,7.59,'11111222,11111222,11111222' 
TABS,ioos:station:wmo:42046:1,2008-08-01T11:00:00Z,27.8903,-94.0367,4.0,5.788825442,208.0260547,7.2,'11111222,11111222,11111222' 
TABS,ioos:station:wmo:42046:1,2008-08-01T11:30:00Z,27.8903,-94.0367,4.0,5.952318876,202.7310891,7.36,'11111222,11111222,11111222' 
TABS,ioos:station:wmo:42046:1,2008-08-01T12:00:00Z,27.8903,-94.0367,4.0,5.443252704,207.4596357,6.8,'11111222,11111222,11111222' 
TABS,ioos:station:wmo:42046:1,2008-08-01T12:30:00Z,27.8903,-94.0367,4.0,5.214604491,206.9091658,6.53,'11111222,11111222,11111222' 
TABS,ioos:station:wmo:42046:1,2008-08-01T13:00:00Z,27.8903,-94.0367,4.0,4.677702427,201.5741162,8.6,'11111222,11111222,11111222' 
TABS,ioos:station:wmo:42046:1,2008-08-01T13:30:00Z,27.8903,-94.0367,4.0,5.050089108,202.9603887,6.55,'11111222,11111222,11111222' 
TABS,ioos:station:wmo:42046:1,2008-08-01T14:00:00Z,27.8903,-94.0367,4.0,5.126060866,198.5411536,6.58,'11111222,11111222,11111222' 
TABS,ioos:station:wmo:42046:1,2008-08-01T14:30:00Z,27.8903,-94.0367,4.0,4.98912818,194.5099281,6.25,'11111222,11111222,11111222' 
TABS,ioos:station:wmo:42046:1,2008-08-01T15:00:00Z,27.8903,-94.0367,4.0,5.459056695,192.4834529,6.68,'11111222,11111222,11111222' 
TABS,ioos:station:wmo:42046:1,2008-08-01T15:30:00Z,27.8903,-94.0367,4.0,4.969557324,194.0923466,6.5,'11111222,11111222,11111222' 
TABS,ioos:station:wmo:42046:1,2008-08-01T16:00:00Z,27.8903,-94.0367,4.0,4.531247069,187.7368842,5.81,'11111222,11111222,11111222' 
TABS,ioos:station:wmo:42046:1,2008-08-01T16:30:00Z,27.8903,-94.0367,4.0,4.220047393,187.8998836,5.39,'11111222,11111222,11111222' 
TABS,ioos:station:wmo:42046:1,2008-08-01T17:00:00Z,27.8903,-94.0367,4.0,4.457947958,190.7303739,5.58,'11111222,11111222,11111222' 
TABS,ioos:station:wmo:42046:1,2008-08-01T17:30:00Z,27.8903,-94.0367,4.0,5.206928077,191.0727348,5.9,'11111222,11111222,11111222' 
TABS,ioos:station:wmo:42046:1,2008-08-01T18:00:00Z,27.8903,-94.0367,4.0,5.098519393,194.772338,6.53,'11111222,11111222,11111222' 
TABS,ioos:station:wmo:42046:1,2008-08-01T18:30:00Z,27.8903,-94.0367,4.0,4.724616387,194.2128958,6.08,'11111222,11111222,11111222' 
TABS,ioos:station:wmo:42046:1,2008-08-01T19:00:00Z,27.8903,-94.0367,4.0,5.03867046,200.8090787,6.28,'11111222,11111222,11111222' 
TABS,ioos:station:wmo:42046:1,2008-08-01T19:30:00Z,27.8903,-94.0367,4.0,5.095772758,204.955912,6.62,'11111222,11111222,11111222' 
TABS,ioos:station:wmo:42046:1,2008-08-01T20:00:00Z,27.8903,-94.0367,4.0,4.204342993,205.6509849,5.47,'11111222,11111222,11111222' 
TABS,ioos:station:wmo:42046:1,2008-08-01T20:30:00Z,27.8903,-94.0367,4.0,4.521703219,205.8285009,5.59,'11111222,11111222,11111222' 
TABS,ioos:station:wmo:42046:1,2008-08-01T21:00:00Z,27.8903,-94.0367,4.0,4.142366473,207.9261791,5.49,'11111222,11111222,11111222' 
TABS,ioos:station:wmo:42046:1,2008-08-01T21:30:00Z,27.8903,-94.0367,4.0,3.703079799,202.5486113,4.86,'11111222,11111222,11111222' 
TABS,ioos:station:wmo:42046:1,2008-08-01T22:00:00Z,27.8903,-94.0367,4.0,3.759321747,203.0186353,4.83,'11111222,11111222,11111222' 
TABS,ioos:station:wmo:42046:1,2008-08-01T22:30:00Z,27.8903,-94.0367,4.0,4.092456475,192.8478853,5.13,'11111222,11111222,11111222' 
TABS,ioos:station:wmo:42046:1,2008-08-01T23:00:00Z,27.8903,-94.0367,4.0,4.034166581,191.0037256,5.22,'11111222,11111222,11111222' 
TABS,ioos:station:wmo:42046:1,2008-08-01T23:30:00Z,27.8903,-94.0367,4.0,4.034414456,196.413756,4.88,'11111222,11111222,11111222' 
TABS,ioos:station:wmo:42046:1,2008-08-02T00:00:00Z,27.8903,-94.0367,4.0,4.123311776,193.4634837,5.05,'11111222,11111222,11111222' 
TABS,ioos:station:wmo:42046:1,2008-08-02T00:30:00Z,27.8903,-94.0367,4.0,4.1323722,190.7390824,4.99,'11111222,11111222,11111222' 
TABS,ioos:station:wmo:42046:1,2008-08-02T01:00:00Z,27.8903,-94.0367,4.0,3.476967069,183.6279319,4.24,'11111222,11111222,11111222' 
TABS,ioos:station:wmo:42046:1,2008-08-02T01:30:00Z,27.8903,-94.0367,4.0,3.160775221,178.7312107,4.28,'11111222,11111222,11111222' 
TABS,ioos:station:wmo:42046:1,2008-08-02T02:00:00Z,27.8903,-94.0367,4.0,3.887685687,187.9843976,4.79,'11111222,11111222,11111222' 
TABS,ioos:station:wmo:42046:1,2008-08-02T02:30:00Z,27.8903,-94.0367,4.0,3.797591342,183.6235927,4.57,'11111222,11111222,11111222' 
TABS,ioos:station:wmo:42046:1,2008-08-02T03:00:00Z,27.8903,-94.0367,4.0,4.04060639,179.0075635,5.12,'11111222,11111222,11111222' 
TABS,ioos:station:wmo:42046:1,2008-08-02T03:30:00Z,27.8903,-94.0367,4.0,4.177774527,188.6733642,5.03,'11111222,11111222,11111222' 
TABS,ioos:station:wmo:42046:1,2008-08-02T04:00:00Z,27.8903,-94.0367,4.0,3.91,180.0002105,4.9,'11111222,11111222,11111222' 
TABS,ioos:station:wmo:42046:1,2008-08-02T04:30:00Z,27.8903,-94.0367,4.0,4.456231592,184.8919712,5.37,'11111222,11111222,11111222' 
TABS,ioos:station:wmo:42046:1,2008-08-02T05:00:00Z,27.8903,-94.0367,4.0,4.519347298,189.2957721,5.44,'11111222,11111222,11111222' 
TABS,ioos:station:wmo:42046:1,2008-08-02T05:30:00Z,27.8903,-94.0367,4.0,4.783513353,195.0241792,6.21,'11111222,11111222,11111222' 
TABS,ioos:station:wmo:42046:1,2008-08-02T06:00:00Z,27.8903,-94.0367,4.0,5.266735232,195.3030001,6.49,'11111222,11111222,11111222' 
TABS,ioos:station:wmo:42046:1,2008-08-02T06:30:00Z,27.8903,-94.0367,4.0,6.067651935,200.0478105,7.56,'11111222,11111222,11111222' 
TABS,ioos:station:wmo:42046:1,2008-08-02T07:00:00Z,27.8903,-94.0367,4.0,6.019501641,206.6503341,7.75,'11111222,11111222,11111222' 
TABS,ioos:station:wmo:42046:1,2008-08-02T07:30:00Z,27.8903,-94.0367,4.0,6.173078648,202.5771847,7.82,'11111222,11111222,11111222' 
TABS,ioos:station:wmo:42046:1,2008-08-02T08:00:00Z,27.8903,-94.0367,4.0,6.154445548,207.4811856,7.62,'11111222,11111222,11111222' 
TABS,ioos:station:wmo:42046:1,2008-08-02T08:30:00Z,27.8903,-94.0367,4.0,6.730601756,206.3748492,8.57,'11111222,11111222,11111222' 
TABS,ioos:station:wmo:42046:1,2008-08-02T09:00:00Z,27.8903,-94.0367,4.0,6.410382204,212.7729522,8.11,'11111222,11111222,11111222' 
TABS,ioos:station:wmo:42046:1,2008-08-02T09:30:00Z,27.8903,-94.0367,4.0,5.978001338,216.9083595,7.65,'11111222,11111222,11111222' 
TABS,ioos:station:wmo:42046:1,2008-08-02T10:00:00Z,27.8903,-94.0367,4.0,5.034381789,214.4793455,6.68,'11111222,11111222,11111222' 
TABS,ioos:station:wmo:42046:1,2008-08-02T10:30:00Z,27.8903,-94.0367,4.0,4.980923609,223.0476007,6.45,'11111222,11111222,11111222' 
TABS,ioos:station:wmo:42046:1,2008-08-02T11:00:00Z,27.8903,-94.0367,4.0,4.47072701,223.3687082,5.52,'11111222,11111222,11111222' 
TABS,ioos:station:wmo:42046:1,2008-08-02T11:30:00Z,27.8903,-94.0367,4.0,4.559407856,230.3393295,5.73,'11111222,11111222,11111222' 
TABS,ioos:station:wmo:42046:1,2008-08-02T12:00:00Z,27.8903,-94.0367,4.0,4.81964729,234.6282388,5.62,'11111222,11111222,11111222' 
TABS,ioos:station:wmo:42046:1,2008-08-02T12:30:00Z,27.8903,-94.0367,4.0,4.207445781,236.0456298,5.33,'11111222,11111222,11111222' 
TABS,ioos:station:wmo:42046:1,2008-08-02T13:00:00Z,27.8903,-94.0367,4.0,4.781631521,235.9112081,5.95,'11111222,11111222,11111222' 
TABS,ioos:station:wmo:42046:1,2008-08-02T13:30:00Z,27.8903,-94.0367,4.0,4.5894662,242.2066376,5.8,'11111222,11111222,11111222' 
TABS,ioos:station:wmo:42046:1,2008-08-02T14:00:00Z,27.8903,-94.0367,4.0,3.677444765,249.2981199,4.91,'11111222,11111222,11111222' 
TABS,ioos:station:wmo:42046:1,2008-08-02T14:30:00Z,27.8903,-94.0367,4.0,3.580223457,245.5825913,4.53,'11111222,11111222,11111222' 
TABS,ioos:station:wmo:42046:1,2008-08-02T15:00:00Z,27.8903,-94.0367,4.0,3.74232548,255.9266567,4.69,'11111222,11111222,11111222' 
TABS,ioos:station:wmo:42046:1,2008-08-02T15:30:00Z,27.8903,-94.0367,4.0,3.497770719,255.0897211,4.5,'11111222,11111222,11111222' 
TABS,ioos:station:wmo:42046:1,2008-08-02T16:00:00Z,27.8903,-94.0367,4.0,3.609224293,255.2322315,4.71,'11111222,11111222,11111222' 
TABS,ioos:station:wmo:42046:1,2008-08-02T16:30:00Z,27.8903,-94.0367,4.0,3.421651648,254.0546414,4.61,'11111222,11111222,11111222' 
TABS,ioos:station:wmo:42046:1,2008-08-02T17:00:00Z,27.8903,-94.0367,4.0,3.556093362,263.0548605,4.83,'11111222,11111222,11111222' 
TABS,ioos:station:wmo:42046:1,2008-08-02T17:30:00Z,27.8903,-94.0367,4.0,3.330960822,268.6237928,4.49,'11111222,11111222,11111222' 
TABS,ioos:station:wmo:42046:1,2008-08-02T18:00:00Z,27.8903,-94.0367,4.0,2.930273025,270.7821445,4.21,'11111222,11111222,11111222' 
TABS,ioos:station:wmo:42046:1,2008-08-02T18:30:00Z,27.8903,-94.0367,4.0,2.622746652,272.6223953,3.76,'11111222,11111222,11111222' 
TABS,ioos:station:wmo:42046:1,2008-08-02T19:00:00Z,27.8903,-94.0367,4.0,2.377603836,274.5835191,3.72,'11111222,11111222,11111222' 
TABS,ioos:station:wmo:42046:1,2008-08-02T19:30:00Z,27.8903,-94.0367,4.0,2.046777956,279.2782183,3.09,'11111222,11111222,11111222' 
TABS,ioos:station:wmo:42046:1,2008-08-02T20:00:00Z,27.8903,-94.0367,4.0,2.390146439,264.7187717,3.48,'11111222,11111222,11111222' 
TABS,ioos:station:wmo:42046:1,2008-08-02T20:30:00Z,27.8903,-94.0367,4.0,2.267972663,265.19441,3.18,'11111222,11111222,11111222' 
TABS,ioos:station:wmo:42046:1,2008-08-02T21:00:00Z,27.8903,-94.0367,4.0,2.515094432,266.3526229,3.61,'11111222,11111222,11111222' 
TABS,ioos:station:wmo:42046:1,2008-08-02T21:30:00Z,27.8903,-94.0367,4.0,2.508804496,257.570306,3.29,'11111222,11111222,11111222' 
TABS,ioos:station:wmo:42046:1,2008-08-02T22:00:00Z,27.8903,-94.0367,4.0,2.895099307,239.7151425,3.7,'11111222,11111222,11111222' 
TABS,ioos:station:wmo:42046:1,2008-08-02T22:30:00Z,27.8903,-94.0367,4.0,3.150698335,236.259575,4.08,'11111222,11111222,11111222' 
TABS,ioos:station:wmo:42046:1,2008-08-02T23:00:00Z,27.8903,-94.0367,4.0,3.116424233,230.0768236,4.33,'11111222,11111222,11111222' 
TABS,ioos:station:wmo:42046:1,2008-08-02T23:30:00Z,27.8903,-94.0367,4.0,2.874717377,238.0791984,3.63,'11111222,11111222,11111222' 
TABS,ioos:station:wmo:42046:1,2008-08-03T00:00:00Z,27.8903,-94.0367,4.0,2.105231579,218.8299446,3.03,'11111222,11111222,11111222' 
TABS,ioos:station:wmo:42046:1,2008-08-03T00:30:00Z,27.8903,-94.0367,4.0,3.148412298,223.0695223,4.07,'11111222,11111222,11111222' 
TABS,ioos:station:wmo:42046:1,2008-08-03T01:00:00Z,27.8903,-94.0367,4.0,3.254074369,217.2573867,4.17,'11111222,11111222,11111222' 
TABS,ioos:station:wmo:42046:1,2008-08-03T01:30:00Z,27.8903,-94.0367,4.0,3.265593361,203.2678609,4.41,'11111222,11111222,11111222' 
TABS,ioos:station:wmo:42046:1,2008-08-03T02:00:00Z,27.8903,-94.0367,4.0,3.209143188,213.046455,4.15,'11111222,11111222,11111222' 
TABS,ioos:station:wmo:42046:1,2008-08-03T02:30:00Z,27.8903,-94.0367,4.0,4.105337989,227.5668124,4.99,'11111222,11111222,11111222' 
TABS,ioos:station:wmo:42046:1,2008-08-03T03:00:00Z,27.8903,-94.0367,4.0,4.479732135,238.5098776,5.47,'11111222,11111222,11111222' 
TABS,ioos:station:wmo:42046:1,2008-08-03T03:30:00Z,27.8903,-94.0367,4.0,4.406200177,233.6763402,5.5,'11111222,11111222,11111222' 
TABS,ioos:station:wmo:42046:1,2008-08-03T04:00:00Z,27.8903,-94.0367,4.0,4.701084981,236.2762085,5.93,'11111222,11111222,11111222' 
TABS,ioos:station:wmo:42046:1,2008-08-03T04:30:00Z,27.8903,-94.0367,4.0,4.916299421,237.797036,5.9,'11111222,11111222,11111222' 
TABS,ioos:station:wmo:42046:1,2008-08-03T05:00:00Z,27.8903,-94.0367,4.0,5.26343044,241.146352,6.17,'11111222,11111222,11111222' 
TABS,ioos:station:wmo:42046:1,2008-08-03T05:30:00Z,27.8903,-94.0367,4.0,5.134861244,238.538771,6.34,'11111222,11111222,11111222' 
TABS,ioos:station:wmo:42046:1,2008-08-03T06:00:00Z,27.8903,-94.0367,4.0,4.947504421,234.5431792,6.11,'11111222,11111222,11111222' 
TABS,ioos:station:wmo:42046:1,2008-08-03T06:30:00Z,27.8903,-94.0367,4.0,4.99009018,235.4501634,6.33,'11111222,11111222,11111222' 
TABS,ioos:station:wmo:42046:1,2008-08-03T07:00:00Z,27.8903,-94.0367,4.0,5.889923599,241.1722264,7.0,'11111222,11111222,11111222' 
TABS,ioos:station:wmo:42046:1,2008-08-03T07:30:00Z,27.8903,-94.0367,4.0,6.484635688,243.6325814,7.75,'11111222,11111222,11111222' 
TABS,ioos:station:wmo:42046:1,2008-08-03T08:00:00Z,27.8903,-94.0367,4.0,6.324365581,244.3263847,7.84,'11111222,11111222,11111222' 
TABS,ioos:station:wmo:42046:1,2008-08-03T08:30:00Z,27.8903,-94.0367,4.0,5.696885114,250.1973848,7.13,'11111222,11111222,11111222' 
TABS,ioos:station:wmo:42046:1,2008-08-03T09:00:00Z,27.8903,-94.0367,4.0,5.809483626,250.9101372,7.28,'11111222,11111222,11111222' 
TABS,ioos:station:wmo:42046:1,2008-08-03T09:30:00Z,27.8903,-94.0367,4.0,6.021179286,258.018254,7.35,'11111222,11111222,11111222' 
TABS,ioos:station:wmo:42046:1,2008-08-03T10:00:00Z,27.8903,-94.0367,4.0,5.678741058,259.8576156,7.29,'11111222,11111222,11111222' 
TABS,ioos:station:wmo:42046:1,2008-08-03T10:30:00Z,27.8903,-94.0367,4.0,4.866466891,274.7147435,5.8,'11111222,11111222,11111222' 
TABS,ioos:station:wmo:42046:1,2008-08-03T11:00:00Z,27.8903,-94.0367,4.0,4.387037725,287.2371179,5.41,'11111222,11111222,11111222' 
TABS,ioos:station:wmo:42046:1,2008-08-03T11:30:00Z,27.8903,-94.0367,4.0,4.121613762,287.0720277,5.24,'11111222,11111222,11111222' 
TABS,ioos:station:wmo:42046:1,2008-08-03T12:00:00Z,27.8903,-94.0367,4.0,4.101914187,287.5956309,5.32,'11111222,11111222,11111222' 
TABS,ioos:station:wmo:42046:1,2008-08-03T12:30:00Z,27.8903,-94.0367,4.0,3.768978641,294.1167851,4.87,'11111222,11111222,11111222' 
TABS,ioos:station:wmo:42046:1,2008-08-03T13:00:00Z,27.8903,-94.0367,4.0,3.942397748,291.4235312,4.9,'11111222,11111222,11111222' 
TABS,ioos:station:wmo:42046:1,2008-08-03T13:30:00Z,27.8903,-94.0367,4.0,4.004759668,305.7538036,4.8,'11111222,11111222,11111222' 
TABS,ioos:station:wmo:42046:1,2008-08-03T14:00:00Z,27.8903,-94.0367,4.0,5.096165225,320.8133108,6.14,'11111222,11111222,11111222' 
TABS,ioos:station:wmo:42046:1,2008-08-03T14:30:00Z,27.8903,-94.0367,4.0,5.465757038,301.3052606,6.71,'11111222,11111222,11111222' 
TABS,ioos:station:wmo:42046:1,2008-08-03T15:00:00Z,27.8903,-94.0367,4.0,5.200240379,280.0781638,6.27,'11111222,11111222,11111222' 
TABS,ioos:station:wmo:42046:1,2008-08-03T15:30:00Z,27.8903,-94.0367,4.0,5.137635643,266.8758522,6.58,'11111222,11111222,11111222' 
TABS,ioos:station:wmo:42046:1,2008-08-03T16:00:00Z,27.8903,-94.0367,4.0,5.031997615,275.3593552,6.43,'11111222,11111222,11111222' 
TABS,ioos:station:wmo:42046:1,2008-08-03T16:30:00Z,27.8903,-94.0367,4.0,5.384394116,277.3625753,6.73,'11111222,11111222,11111222' 
TABS,ioos:station:wmo:42046:1,2008-08-03T17:00:00Z,27.8903,-94.0367,4.0,5.407124929,265.4387645,7.15,'11111222,11111222,11111222' 
TABS,ioos:station:wmo:42046:1,2008-08-03T17:30:00Z,27.8903,-94.0367,4.0,5.962759428,260.4429181,7.49,'11111222,11111222,11111222' 
TABS,ioos:station:wmo:42046:1,2008-08-03T18:00:00Z,27.8903,-94.0367,4.0,5.88600034,276.3401769,7.69,'11111222,11111222,11111222' 
TABS,ioos:station:wmo:42046:1,2008-08-03T18:30:00Z,27.8903,-94.0367,4.0,5.640088652,277.6416168,7.23,'11111222,11111222,11111222' 
TABS,ioos:station:wmo:42046:1,2008-08-03T19:00:00Z,27.8903,-94.0367,4.0,5.050039604,276.2524732,6.65,'11111222,11111222,11111222' 
TABS,ioos:station:wmo:42046:1,2008-08-03T19:30:00Z,27.8903,-94.0367,4.0,5.252551761,288.5383896,6.85,'11111222,11111222,11111222' 
TABS,ioos:station:wmo:42046:1,2008-08-03T20:00:00Z,27.8903,-94.0367,4.0,4.867073042,297.9339259,6.18,'11111222,11111222,11111222' 
TABS,ioos:station:wmo:42046:1,2008-08-03T20:30:00Z,27.8903,-94.0367,4.0,5.068510629,292.8719843,6.46,'11111222,11111222,11111222' 
TABS,ioos:station:wmo:42046:1,2008-08-03T21:00:00Z,27.8903,-94.0367,4.0,5.286000378,306.8481332,7.12,'11111222,11111222,11111222' 
TABS,ioos:station:wmo:42046:1,2008-08-03T21:30:00Z,27.8903,-94.0367,4.0,5.088624569,298.781129,6.55,'11111222,11111222,11111222' 
TABS,ioos:station:wmo:42046:1,2008-08-03T22:00:00Z,27.8903,-94.0367,4.0,4.896948029,300.0205485,6.18,'11111222,11111222,11111222' 
TABS,ioos:station:wmo:42046:1,2008-08-03T22:30:00Z,27.8903,-94.0367,4.0,4.98678253,303.881186,6.51,'11111222,11111222,11111222' 
TABS,ioos:station:wmo:42046:1,2008-08-03T23:00:00Z,27.8903,-94.0367,4.0,4.857427303,311.9958818,6.01,'11111222,11111222,11111222' 
TABS,ioos:station:wmo:42046:1,2008-08-03T23:30:00Z,27.8903,-94.0367,4.0,4.386308243,306.1905515,5.61,'11111222,11111222,11111222' 
TABS,ioos:station:wmo:42046:1,2008-08-04T00:00:00Z,27.8903,-94.0367,4.0,4.37675679,304.1983018,5.46,'11111222,11111222,11111222' 
TABS,ioos:station:wmo:42046:1,2008-08-04T00:30:00Z,27.8903,-94.0367,4.0,4.745460989,303.6565021,5.78,'11111222,11111222,11111222' 
TABS,ioos:station:wmo:42046:1,2008-08-04T01:00:00Z,27.8903,-94.0367,4.0,4.464717236,301.9100878,5.47,'11111222,11111222,11111222' 
TABS,ioos:station:wmo:42046:1,2008-08-04T01:30:00Z,27.8903,-94.0367,4.0,4.906668931,297.5572483,5.98,'11111222,11111222,11111222' 
TABS,ioos:station:wmo:42046:1,2008-08-04T02:00:00Z,27.8903,-94.0367,4.0,5.217758139,304.6950724,6.31,'11111222,11111222,11111222' 
TABS,ioos:station:wmo:42046:1,2008-08-04T02:30:00Z,27.8903,-94.0367,4.0,4.887872748,302.5520297,5.83,'11111222,11111222,11111222' 
TABS,ioos:station:wmo:42046:1,2008-08-04T03:00:00Z,27.8903,-94.0367,4.0,4.780669409,299.0312547,5.84,'11111222,11111222,11111222' 
TABS,ioos:station:wmo:42046:1,2008-08-04T03:30:00Z,27.8903,-94.0367,4.0,4.052283307,293.7183788,4.79,'11111222,11111222,11111222' 
TABS,ioos:station:wmo:42046:1,2008-08-04T04:00:00Z,27.8903,-94.0367,4.0,4.082707435,307.9364371,4.87,'11111222,11111222,11111222' 
TABS,ioos:station:wmo:42046:1,2008-08-04T04:30:00Z,27.8903,-94.0367,4.0,3.945757215,314.5891803,5.05,'11111222,11111222,11111222' 
TABS,ioos:station:wmo:42046:1,2008-08-04T05:00:00Z,27.8903,-94.0367,4.0,4.115167068,324.4945653,5.07,'11111222,11111222,11111222' 
TABS,ioos:station:wmo:42046:1,2008-08-04T05:30:00Z,27.8903,-94.0367,4.0,3.834501271,322.2035252,4.63,'11111222,11111222,11111222' 
TABS,ioos:station:wmo:42046:1,2008-08-04T06:00:00Z,27.8903,-94.0367,4.0,3.518636099,319.6105333,4.26,'11111222,11111222,11111222' 
TABS,ioos:station:wmo:42046:1,2008-08-04T06:30:00Z,27.8903,-94.0367,4.0,2.923439755,312.3658748,3.6,'11111222,11111222,11111222' 
TABS,ioos:station:wmo:42046:1,2008-08-04T07:00:00Z,27.8903,-94.0367,4.0,3.090129447,314.606567,4.05,'11111222,11111222,11111222' 
TABS,ioos:station:wmo:42046:1,2008-08-04T07:30:00Z,27.8903,-94.0367,4.0,3.551957207,317.0534405,4.49,'11111222,11111222,11111222' 
TABS,ioos:station:wmo:42046:1,2008-08-04T08:00:00Z,27.8903,-94.0367,4.0,3.431180555,308.3728508,4.36,'11111222,11111222,11111222' 
TABS,ioos:station:wmo:42046:1,2008-08-04T08:30:00Z,27.8903,-94.0367,4.0,3.656993301,327.9612663,4.36,'11111222,11111222,11111222' 
TABS,ioos:station:wmo:42046:1,2008-08-04T09:00:00Z,27.8903,-94.0367,4.0,3.864621586,319.3021055,4.7,'11111222,11111222,11111222' 
TABS,ioos:station:wmo:42046:1,2008-08-04T09:30:00Z,27.8903,-94.0367,4.0,3.690596158,334.8235138,4.56,'11111222,11111222,11111222' 
TABS,ioos:station:wmo:42046:1,2008-08-04T10:00:00Z,27.8903,-94.0367,4.0,3.243038699,329.0058063,4.22,'11111222,11111222,11111222' 
TABS,ioos:station:wmo:42046:1,2008-08-04T10:30:00Z,27.8903,-94.0367,4.0,3.654531434,338.4895649,4.4,'11111222,11111222,11111222' 
TABS,ioos:station:wmo:42046:1,2008-08-04T11:00:00Z,27.8903,-94.0367,4.0,3.832753579,338.2539501,4.62,'11111222,11111222,11111222' 
TABS,ioos:station:wmo:42046:1,2008-08-04T11:30:00Z,27.8903,-94.0367,4.0,3.949645554,321.4760042,4.97,'11111222,11111222,11111222' 
TABS,ioos:station:wmo:42046:1,2008-08-04T12:00:00Z,27.8903,-94.0367,4.0,4.219217937,335.1962535,5.33,'11111222,11111222,11111222' 
TABS,ioos:station:wmo:42046:1,2008-08-04T12:30:00Z,27.8903,-94.0367,4.0,4.040111385,343.314168,5.0,'11111222,11111222,11111222' 
TABS,ioos:station:wmo:42046:1,2008-08-04T13:00:00Z,27.8903,-94.0367,4.0,4.214451328,343.4568448,4.93,'11111222,11111222,11111222' 
TABS,ioos:station:wmo:42046:1,2008-08-04T13:30:00Z,27.8903,-94.0367,4.0,4.185701853,343.3399177,5.12,'11111222,11111222,11111222' 
TABS,ioos:station:wmo:42046:1,2008-08-04T14:00:00Z,27.8903,-94.0367,4.0,3.818442091,348.3661827,4.69,'11111222,11111222,11111222' 
TABS,ioos:station:wmo:42046:1,2008-08-04T14:30:00Z,27.8903,-94.0367,4.0,3.434472303,346.5300428,4.34,'11111222,11111222,11111222' 
TABS,ioos:station:wmo:42046:1,2008-08-04T15:00:00Z,27.8903,-94.0367,4.0,2.319482701,315.6985875,3.29,'11111222,11111222,11111222' 
TABS,ioos:station:wmo:42046:1,2008-08-04T15:30:00Z,27.8903,-94.0367,4.0,3.094543585,324.2039142,3.88,'11111222,11111222,11111222' 
TABS,ioos:station:wmo:42046:1,2008-08-04T16:00:00Z,27.8903,-94.0367,4.0,3.478807267,318.6125436,4.57,'11111222,11111222,11111222' 
TABS,ioos:station:wmo:42046:1,2008-08-04T16:30:00Z,27.8903,-94.0367,4.0,4.043612246,319.6137549,4.95,'11111222,11111222,11111222' 
TABS,ioos:station:wmo:42046:1,2008-08-04T17:00:00Z,27.8903,-94.0367,4.0,4.171953979,314.805673,5.12,'11111222,11111222,11111222' 
TABS,ioos:station:wmo:42046:1,2008-08-04T17:30:00Z,27.8903,-94.0367,4.0,4.324638713,317.5301348,5.04,'11111222,11111222,11111222' 
TABS,ioos:station:wmo:42046:1,2008-08-04T18:00:00Z,27.8903,-94.0367,4.0,4.440833255,315.5472887,5.5,'11111222,11111222,11111222' 
TABS,ioos:station:wmo:42046:1,2008-08-04T18:30:00Z,27.8903,-94.0367,4.0,3.950620204,312.1272539,4.88,'11111222,11111222,11111222' 